{"data":{"norad_id":66040,"epoch":"2026-05-25T03:05:02.055264Z","epoch_age_seconds":67046,"freshness":"FRESH","line1":"1 66040U 25233H   26145.12849601  .00000134  00000+0  18850-3 0  9992","line2":"2 66040  89.0013  45.2495 0001908  84.7161 275.4208 13.51006695 30213","mean_motion":13.51006695,"eccentricity":0.0001908,"inclination_deg":89.0013,"raan_deg":45.2495,"arg_perigee_deg":84.7161,"mean_anomaly_deg":275.4208,"bstar":0.0001885,"rev_number":3021,"period_min":106.58718460311,"perigee_km":1067.1361542196,"apogee_km":1069.9778126437,"semimajor_km":7446.6939834317,"source":"CELESTRAK","updated_at":"2026-05-25T13:38:05.920952Z"}}